This demonstration page uses our WeatherBlox Daily Observations layout. Learn more.

Left ArrowRight Arrow

Hourly Observations for February 20, 2019

Temp ( °F °C ) Dew Point ( °F °C ) Humidity (%) Winds ( mph kmh ) Pressure ( in mb ) Visibility ( mi km ) Precip ( " mm )
12:15 am 00:15 Clear 34 1 21 -6 60 60 Calm 30.6 1036 10 16.0934 0 0
12:35 am 00:35 Clear 34 1 19 -7 56 56 Calm 30.61 1037 10 16.0934 0 0
12:55 am 00:55 Clear 34 1 19 -7 56 56 Calm 30.61 1037 10 16.0934 0 0
1:15 am 01:15 Partly Cloudy 34 1 19 -7 56 56 E 3 6 30.61 1037 10 16.0934 0 0
1:35 am 01:35 Clear 34 1 19 -7 56 56 Calm 30.61 1037 10 16.0934 0 0
1:55 am 01:55 Partly Cloudy 34 1 19 -7 56 56 ENE 6 9 30.59 1036 10 16.0934 0 0
2:15 am 02:15 Mostly Cloudy 34 1 19 -7 56 56 ENE 5 7 30.58 1036 10 16.0934 0 0
2:35 am 02:35 Cloudy 34 1 21 -6 60 60 E 3 6 30.58 1036 10 16.0934 0 0
2:55 am 02:55 Cloudy 34 1 19 -7 56 56 Calm 30.58 1036 10 16.0934 0 0
3:15 am 03:15 Cloudy 34 1 19 -7 56 56 Calm 30.58 1036 10 16.0934 0 0
3:35 am 03:35 Cloudy 34 1 19 -7 56 56 E 5 7 30.55 1035 10 16.0934 0 0
3:55 am 03:55 Cloudy 34 1 19 -7 56 56 E 3 6 30.55 1035 10 16.0934 0 0
4:15 am 04:15 Cloudy 34 1 19 -7 56 56 Calm 30.55 1035 10 16.0934 0 0
4:35 am 04:35 Cloudy 34 1 21 -6 60 60 ENE 3 6 30.55 1035 10 16.0934 0 0
4:55 am 04:55 Cloudy 34 1 21 -6 60 60 Calm 30.55 1035 10 16.0934 0 0
5:15 am 05:15 Cloudy 34 1 21 -6 60 60 Calm 30.57 1035 10 16.0934 0 0
5:35 am 05:35 Cloudy 34 1 28 -2 81 81 S 10 17 30.56 1035 7 11.26538 0 0
5:55 am 05:55 Cloudy 32 0 30 -1 93 93 SSE 10 17 30.54 1034 1.75 2.816345 0 0
6:15 am 06:15 Cloudy 32 0 32 0 100 100 SSE 5 7 30.57 1035 1.25 2.011675 0 0
6:35 am 06:35 Cloudy 32 0 32 0 100 100 SE 6 9 30.54 1034 1.25 2.011675 0 0
6:55 am 06:55 Cloudy 32 0 32 0 100 100 SE 7 11 30.53 1034 1 1.60934 0 0
7:15 am 07:15 Cloudy 30 -1 30 -1 100 100 ESE 5 7 30.53 1034 0.25 0.402335 0 0
7:35 am 07:35 Cloudy 30 -1 30 -1 100 100 ESE 6 9 30.54 1034 0.5 0.80467 0 0
7:55 am 07:55 Cloudy 30 -1 30 -1 100 100 E 6 9 30.53 1034 0.5 0.80467 0 0
8:15 am 08:15 Cloudy 30 -1 30 -1 100 100 SE 6 9 30.54 1034 0.25 0.402335 0 0
8:35 am 08:35 Cloudy 30 -1 30 -1 100 100 SSE 7 11 30.54 1034 0.5 0.80467 0 0
8:55 am 08:55 Cloudy 30 -1 30 -1 100 100 ESE 5 7 30.54 1034 0.25 0.402335 0 0
9:15 am 09:15 Cloudy 30 -1 30 -1 100 100 ESE 3 6 30.53 1034 0.5 0.80467 0 0
9:35 am 09:35 Cloudy 30 -1 30 -1 100 100 ESE 6 9 30.51 1033 0.5 0.80467 0 0
9:55 am 09:55 Cloudy 30 -1 30 -1 100 100 E 3 6 30.52 1034 0.5 0.80467 0 0
10:15 am 10:15 Cloudy 30 -1 30 -1 100 100 ENE 6 9 30.53 1034 0.75 1.207005 0 0
10:35 am 10:35 Cloudy 30 -1 30 -1 100 100 E 7 11 30.51 1033 0.75 1.207005 0 0
10:55 am 10:55 Cloudy 30 -1 30 -1 100 100 ENE 6 9 30.56 1035 0.75 1.207005 0 0
11:15 am 11:15 Cloudy 30 -1 30 -1 100 100 ESE 6 9 30.52 1034 0.75 1.207005 0 0
11:35 am 11:35 Cloudy 30 -1 30 -1 100 100 SE 7 11 30.49 1033 0.5 0.80467 0 0
11:55 am 11:55 Cloudy 30 -1 30 -1 100 100 ESE 3 6 30.51 1033 0.75 1.207005 0 0
12:15 pm 12:15 Cloudy 30 -1 30 -1 100 100 ESE 7 11 30.45 1031 1 1.60934 0 0
12:35 pm 12:35 Cloudy 30 -1 30 -1 100 100 SE 7 11 30.45 1031 1.5 2.41401 0 0
12:55 pm 12:55 Cloudy 32 0 32 0 100 100 SE 7 11 30.43 1031 0.75 1.207005 0 0
1:15 pm 13:15 Cloudy 32 0 32 0 100 100 SE 6 9 30.42 1030 1 1.60934 0 0
1:35 pm 13:35 Cloudy 32 0 32 0 100 100 E 3 6 30.42 1030 1 1.60934 0 0
1:55 pm 13:55 Cloudy 32 0 32 0 100 100 ESE 6 9 30.39 1029 4 6.43736 0 0
2:15 pm 14:15 Cloudy 32 0 32 0 100 100 SE 6 9 30.38 1029 4 6.43736 0 0
2:35 pm 14:35 Cloudy 32 0 32 0 100 100 SE 7 11 30.37 1029 3 4.82802 0 0
2:55 pm 14:55 Cloudy 32 0 32 0 100 100 SE 8 13 30.36 1028 5 8.0467 0 0
3:15 pm 15:15 Cloudy 32 0 32 0 100 100 SSE 3 6 30.35 1028 4 6.43736 0 0
3:35 pm 15:35 Cloudy 32 0 32 0 100 100 S 6 9 30.35 1028 1.25 2.011675 0 0
3:55 pm 15:55 Cloudy 32 0 32 0 100 100 SSE 3 6 30.34 1027 1 1.60934 0 0
4:15 pm 16:15 Cloudy 32 0 32 0 100 100 S 6 9 30.33 1027 1.75 2.816345 0 0
4:35 pm 16:35 Cloudy 32 0 32 0 100 100 S 5 7 30.32 1027 1.75 2.816345 0 0
4:55 pm 16:55 Cloudy 32 0 32 0 100 100 SSW 5 7 30.33 1027 1.75 2.816345 0 0
5:15 pm 17:15 Cloudy 32 0 32 0 100 100 S 5 7 30.31 1026 2 3.21868 0 0
5:35 pm 17:35 Cloudy 32 0 32 0 100 100 Calm 30.3 1026 2 3.21868 0 0
5:55 pm 17:55 Cloudy 32 0 32 0 100 100 Calm 30.29 1026 3 4.82802 0 0
6:15 pm 18:15 Cloudy 32 0 32 0 100 100 Calm 30.28 1025 4 6.43736 0 0
6:35 pm 18:35 Cloudy 32 0 32 0 100 100 SSW 3 6 30.28 1025 4 6.43736 0 0
7:15 pm 19:15 Cloudy 32 0 32 0 100 100 SSE 3 6 30.26 1025 2 3.21868 0 0
7:35 pm 19:35 Cloudy 32 0 32 0 100 100 SE 6 9 30.2 1023 4 6.43736 0 0
7:55 pm 19:55 Cloudy 32 0 32 0 100 100 ESE 3 6 30.2 1023 5 8.0467 0 0
8:15 pm 20:15 Cloudy 32 0 32 0 100 100 E 3 6 30.19 1022 5 8.0467 0 0
8:35 pm 20:35 Cloudy 32 0 32 0 100 100 Calm 30.18 1022 3 4.82802 0 0
8:55 pm 20:55 Cloudy 32 0 32 0 100 100 Calm 30.16 1021 2.5 4.02335 0 0
9:15 pm 21:15 Cloudy 32 0 32 0 100 100 Calm 30.16 1021 3 4.82802 0 0
9:35 pm 21:35 Cloudy 32 0 32 0 100 100 SE 3 6 30.14 1021 4 6.43736 0 0
9:55 pm 21:55 Cloudy 32 0 32 0 100 100 Calm 30.13 1020 5 8.0467 0 0
10:15 pm 22:15 Cloudy 32 0 32 0 100 100 Calm 30.14 1021 4 6.43736 0 0
10:35 pm 22:35 Cloudy 32 0 32 0 100 100 Calm 30.11 1020 1.75 2.816345 0 0
10:55 pm 22:55 Cloudy 32 0 32 0 100 100 Calm 30.09 1019 4 6.43736 0 0
11:15 pm 23:15 Cloudy 32 0 32 0 100 100 Calm 30.11 1020 5 8.0467 0 0
11:35 pm 23:35 Cloudy 32 0 32 0 100 100 ESE 3 6 30.07 1018 3 4.82802 0 0
11:55 pm 23:55 Cloudy 32 0 32 0 100 100 Calm 30.07 1018 3 4.82802 0 0

Powered by AerisWeather